QPF
0.00 0.00 0.00 0.00 0.00 0.00 0.00 0.00 0.00 0.00 0.00 0.00 0.00 0.00 0.00 0.00 0.00 0.00 0.00 0.00 0.00 0.00 0.00 0.00 0.01 0.01 0.00 0.00 0.00 0.00 0.00 0.00 0.00 0.01 0.01 0.01 0.01 0.01 0.01 0.01 0.01 0.01 0.01 0.02
0.00 0.00 0.00 0.00 0.00 0.00 0.00 0.00 0.00 0.00 0.00 0.00 0.00 0.00 0.00 0.00 0.00 0.00 0.00 0.00 0.00 0.00 0.00 0.01 0.01 0.01 0.01 0.01 0.00 0.00 0.00 0.01 0.01 0.01 0.01 0.01 0.01 0.02 0.02 0.02 0.02 0.03 0.02 0.02
0.00 0.00 0.00 0.00 0.00 0.00 0.00 0.00 0.00 0.00 0.00 0.00 0.00 0.00 0.00 0.00 0.00 0.00 0.00 0.00 0.00 0.00 0.00 0.00 0.00 0.00 0.01 0.01 0.01 0.00 0.00 0.01 0.01 0.01 0.01 0.01 0.01 0.02 0.02 0.03 0.03 0.03 0.03 0.03
0.00 0.00 0.00 0.00 0.00 0.00 0.00 0.00 0.00 0.00 0.00 0.00 0.00 0.00 0.00 0.00 0.00 0.00 0.00 0.00 0.00 0.00 0.00 0.00 0.00 0.01 0.01 0.01 0.01 0.01 0.01 0.01 0.01 0.01 0.01 0.01 0.01 0.02 0.03 0.03 0.03 0.04 0.04 0.03
0.00 0.00 0.00 0.00 0.00 0.00 0.00 0.00 0.00 0.00 0.00 0.00 0.00 0.00 0.00 0.00 0.00 0.00 0.00 0.00 0.00 0.00 0.00 0.00 0.01 0.00 0.01 0.00 0.00 0.01 0.01 0.02 0.02 0.03 0.03 0.03 0.02 0.03 0.04 0.04 0.04 0.04 0.04 0.04
0.00 0.00 0.00 0.00 0.00 0.00 0.00 0.00 0.00 0.00 0.00 0.00 0.00 0.00 0.00 0.00 0.00 0.00 0.00 0.00 0.01 0.00 0.00 0.00 0.00 0.00 0.00 0.00 0.00 0.01 0.01 0.01 0.01 0.02 0.03 0.04 0.03 0.03 0.03 0.05 0.05 0.04 0.03 0.03
0.00 0.00 0.00 0.00 0.00 0.00 0.01 0.02 0.01 0.00 0.00 0.00 0.00 0.00 0.00 0.00 0.01 0.00 0.00 0.00 0.01 0.01 0.01 0.01 0.00 0.01 0.00 0.01 0.00 0.01 0.01 0.01 0.01 0.01 0.01 0.02 0.02 0.01 0.02 0.02 0.03 0.03 0.03 0.03
0.00 0.01 0.01 0.01 0.01 0.01 0.01 0.01 0.00 0.00 0.00 0.00 0.00 0.00 0.00 0.01 0.02 0.01 0.00 0.00 0.01 0.01 0.01 0.01 0.01 0.01 0.01 0.01 0.01 0.01 0.02 0.02 0.02 0.02 0.01 0.01 0.02 0.02 0.02 0.01 0.01 0.02 0.02 0.02
0.00 0.01 0.02 0.01 0.01 0.01 0.00 0.00 0.00 0.00 0.00 0.00 0.00 0.00 0.00 0.00 0.01 0.01 0.00 0.01 0.01 0.01 0.01 0.00 0.01 0.01 0.01 0.01 0.01 0.01 0.01 0.01 0.02 0.02 0.02 0.02 0.03 0.03 0.02 0.02 0.02 0.02 0.02 0.03
0.00 0.01 0.01 0.01 0.00 0.00 0.00 0.00 0.00 0.00 0.00 0.00 0.00 0.00 0.00 0.00 0.00 0.00 0.00 0.00 0.01 0.01 0.01 0.01 0.01 0.01 0.01 0.01 0.01 0.01 0.01 0.01 0.01 0.02 0.03 0.02 0.02 0.02 0.02 0.02 0.02 0.02 0.02 0.03
0.01 0.01 0.01 0.00 0.00 0.00 0.00 0.00 0.00 0.00 0.00 0.00 0.00 0.00 0.00 0.01 0.01 0.01 0.01 0.01 0.01 0.01 0.01 0.01 0.01 0.01 0.01 0.01 0.01 0.01 0.01 0.01 0.01 0.02 0.02 0.02 0.02 0.02 0.02 0.02 0.03 0.03 0.02 0.03
0.02 0.02 0.01 0.01 0.01 0.00 0.00 0.00 0.00 0.00 0.00 0.00 0.00 0.00 0.01 0.01 0.01 0.01 0.01 0.01 0.01 0.01 0.01 0.01 0.01 0.01 0.01 0.01 0.01 0.01 0.01 0.01 0.01 0.01 0.01 0.02 0.02 0.02 0.02 0.02 0.02 0.02 0.02 0.03
0.02 0.02 0.02 0.01 0.01 0.01 0.01 0.00 0.00 0.00 0.00 0.00 0.00 0.01 0.01 0.01 0.01 0.01 0.01 0.01 0.01 0.01 0.01 0.01 0.01 0.01 0.01 0.01 0.01 0.01 0.01 0.01 0.01 0.01 0.01 0.02 0.02 0.02 0.02 0.02 0.02 0.02 0.02 0.03
0.02 0.02 0.01 0.01 0.02 0.01 0.01 0.00 0.00 0.00 0.00 0.01 0.01 0.01 0.01 0.01 0.01 0.01 0.01 0.01 0.01 0.01 0.01 0.02 0.02 0.02 0.01 0.01 0.01 0.01 0.01 0.01 0.01 0.01 0.01 0.02 0.02 0.02 0.02 0.02 0.02 0.02 0.02 0.03
0.02 0.01 0.02 0.02 0.02 0.01 0.01 0.01 0.01 0.01 0.01 0.01 0.02 0.02 0.01 0.01 0.01 0.01 0.01 0.01 0.01 0.01 0.01 0.02 0.02 0.02 0.01 0.01 0.01 0.02 0.02 0.02 0.02 0.02 0.01 0.02 0.02 0.02 0.02 0.02 0.02 0.02 0.02 0.03
0.01 0.01 0.02 0.02 0.01 0.02 0.02 0.02 0.02 0.01 0.01 0.02 0.02 0.02 0.02 0.03 0.02 0.01 0.01 0.01 0.01 0.01 0.02 0.02 0.02 0.01 0.01 0.01 0.02 0.02 0.02 0.02 0.02 0.01 0.01 0.02 0.01 0.01 0.02 0.02 0.02 0.03 0.03 0.03
0.01 0.01 0.01 0.01 0.01 0.01 0.01 0.02 0.02 0.01 0.01 0.02 0.01 0.01 0.02 0.02 0.02 0.01 0.01 0.01 0.01 0.01 0.01 0.01 0.01 0.01 0.01 0.01 0.02 0.02 0.01 0.02 0.02 0.02 0.02 0.02 0.01 0.02 0.03 0.03 0.03 0.03 0.03 0.03
0.02 0.02 0.02 0.02 0.02 0.01 0.01 0.02 0.02 0.01 0.01 0.01 0.02 0.02 0.02 0.02 0.02 0.01 0.01 0.01 0.01 0.01 0.01 0.01 0.01 0.01 0.01 0.02 0.02 0.02 0.02 0.02 0.02 0.03 0.03 0.03 0.02 0.03 0.03 0.03 0.04 0.04 0.03 0.03
0.03 0.03 0.02 0.02 0.02 0.01 0.02 0.02 0.01 0.01 0.01 0.01 0.02 0.03 0.03 0.02 0.01 0.01 0.01 0.01 0.01 0.01 0.01 0.00 0.01 0.01 0.01 0.02 0.02 0.02 0.02 0.02 0.03 0.03 0.04 0.03 0.03 0.04 0.04 0.04 0.04 0.04 0.04 0.04
0.04 0.03 0.02 0.02 0.02 0.02 0.02 0.01 0.01 0.01 0.01 0.01 0.02 0.02 0.02 0.02 0.02 0.02 0.01 0.01 0.01 0.01 0.01 0.01 0.01 0.01 0.01 0.02 0.02 0.01 0.01 0.01 0.01 0.02 0.03 0.03 0.03 0.03 0.03 0.04 0.04 0.05 0.05 0.04
0.03 0.03 0.02 0.02 0.02 0.02 0.01 0.01 0.00 0.00 0.01 0.01 0.01 0.02 0.02 0.02 0.03 0.02 0.02 0.02 0.01 0.01 0.01 0.01 0.01 0.01 0.01 0.01 0.01 0.01 0.01 0.02 0.02 0.02 0.02 0.03 0.03 0.02 0.03 0.03 0.03 0.03 0.03 0.03
0.03 0.04 0.03 0.02 0.02 0.01 0.01 0.01 0.01 0.02 0.01 0.01 0.01 0.01 0.02 0.02 0.03 0.03 0.03 0.03 0.02 0.02 0.01 0.01 0.01 0.01 0.01 0.01 0.01 0.02 0.01 0.02 0.02 0.02 0.02 0.02 0.03 0.03 0.03 0.03 0.03 0.03 0.03 0.03
0.03 0.03 0.03 0.02 0.01 0.02 0.01 0.01 0.02 0.02 0.02 0.01 0.01 0.01 0.02 0.02 0.03 0.03 0.03 0.03 0.02 0.02 0.02 0.01 0.01 0.01 0.01 0.01 0.01 0.01 0.01 0.02 0.03 0.02 0.02 0.03 0.03 0.04 0.03 0.03 0.03 0.03 0.03 0.03
0.03 0.03 0.03 0.03 0.02 0.02 0.02 0.01 0.02 0.02 0.02 0.01 0.01 0.01 0.01 0.02 0.02 0.02 0.02 0.02 0.02 0.02 0.01 0.01 0.01 0.01 0.01 0.01 0.01 0.01 0.02 0.02 0.03 0.03 0.03 0.03 0.03 0.04 0.04 0.04 0.04 0.04 0.03 0.03
0.03 0.03 0.02 0.02 0.02 0.02 0.02 0.02 0.02 0.02 0.02 0.02 0.01 0.01 0.01 0.01 0.02 0.02 0.01 0.02 0.02 0.01 0.01 0.01 0.01 0.01 0.01 0.01 0.01 0.01 0.02 0.02 0.03 0.03 0.03 0.03 0.03 0.04 0.05 0.05 0.05 0.05 0.03 0.03
0.03 0.04 0.03 0.03 0.03 0.02 0.02 0.02 0.02 0.02 0.02 0.02 0.02 0.02 0.02 0.02 0.03 0.02 0.02 0.02 0.02 0.01 0.02 0.02 0.01 0.01 0.01 0.01 0.01 0.01 0.01 0.02 0.02 0.02 0.02 0.03 0.04 0.04 0.04 0.04 0.05 0.05 0.05 0.04
0.04 0.04 0.04 0.04 0.03 0.03 0.04 0.04 0.03 0.02 0.02 0.02 0.02 0.02 0.02 0.02 0.03 0.03 0.03 0.04 0.04 0.03 0.03 0.03 0.02 0.02 0.02 0.01 0.01 0.01 0.01 0.01 0.01 0.01 0.02 0.03 0.03 0.04 0.04 0.04 0.05 0.05 0.06 0.06
MSLP
1007.61 1008.11 1008.51 1008.79 1008.94 1008.97 1008.89 1008.73 1008.51 1008.29 1008.08 1007.93 1007.87 1007.92 1008.08 1008.35 1008.72 1009.14 1009.61 1010.07 1010.51 1010.91 1011.24 1011.52 1011.75 1011.93 1012.07 1012.18 1012.26 1012.33 1012.37 1012.38 1012.38 1012.36 1012.34 1012.32 1012.32 1012.33 1012.36 1012.41 1012.45 1012.48 1012.48 1012.43
1007.74 1008.17 1008.46 1008.58 1008.56 1008.42 1008.20 1007.94 1007.70 1007.52 1007.43 1007.45 1007.60 1007.87 1008.24 1008.69 1009.18 1009.68 1010.18 1010.63 1011.04 1011.40 1011.71 1011.99 1012.25 1012.49 1012.72 1012.93 1013.13 1013.29 1013.41 1013.48 1013.51 1013.49 1013.45 1013.38 1013.32 1013.28 1013.25 1013.25 1013.26 1013.27 1013.26 1013.22
1007.92 1008.27 1008.44 1008.41 1008.23 1007.92 1007.56 1007.21 1006.94 1006.79 1006.80 1006.97 1007.31 1007.78 1008.34 1008.94 1009.56 1010.13 1010.66 1011.11 1011.49 1011.82 1012.11 1012.39 1012.67 1012.96 1013.26 1013.56 1013.84 1014.08 1014.28 1014.40 1014.45 1014.44 1014.38 1014.29 1014.18 1014.09 1014.02 1013.97 1013.95 1013.94 1013.92 1013.88
1008.02 1008.28 1008.33 1008.17 1007.83 1007.38 1006.91 1006.49 1006.19 1006.07 1006.17 1006.47 1006.98 1007.62 1008.35 1009.11 1009.84 1010.50 1011.07 1011.54 1011.91 1012.22 1012.50 1012.77 1013.06 1013.38 1013.72 1014.08 1014.41 1014.71 1014.95 1015.11 1015.18 1015.17 1015.10 1014.98 1014.85 1014.72 1014.62 1014.55 1014.50 1014.48 1014.45 1014.41
1007.89 1008.06 1008.00 1007.72 1007.27 1006.72 1006.17 1005.70 1005.40 1005.33 1005.51 1005.93 1006.58 1007.39 1008.28 1009.19 1010.05 1010.80 1011.44 1011.94 1012.34 1012.66 1012.93 1013.21 1013.50 1013.82 1014.18 1014.55 1014.91 1015.22 1015.47 1015.64 1015.71 1015.70 1015.62 1015.49 1015.35 1015.21 1015.09 1015.01 1014.96 1014.92 1014.88 1014.83
1007.42 1007.50 1007.35 1007.00 1006.48 1005.88 1005.30 1004.83 1004.55 1004.54 1004.81 1005.35 1006.14 1007.09 1008.13 1009.19 1010.17 1011.04 1011.77 1012.35 1012.79 1013.14 1013.43 1013.71 1014.00 1014.32 1014.67 1015.03 1015.37 1015.67 1015.91 1016.06 1016.12 1016.10 1016.02 1015.89 1015.74 1015.61 1015.50 1015.43 1015.37 1015.34 1015.30 1015.24
1006.58 1006.58 1006.37 1005.98 1005.45 1004.85 1004.30 1003.88 1003.67 1003.74 1004.10 1004.76 1005.67 1006.75 1007.93 1009.11 1010.23 1011.22 1012.05 1012.72 1013.24 1013.65 1013.98 1014.28 1014.58 1014.89 1015.21 1015.54 1015.85 1016.12 1016.32 1016.44 1016.49 1016.45 1016.36 1016.24 1016.12 1016.00 1015.92 1015.86 1015.83 1015.81 1015.78 1015.71
1005.43 1005.35 1005.12 1004.74 1004.25 1003.73 1003.26 1002.93 1002.83 1003.00 1003.47 1004.23 1005.24 1006.43 1007.71 1009.01 1010.24 1011.34 1012.28 1013.06 1013.67 1014.15 1014.54 1014.87 1015.18 1015.49 1015.79 1016.09 1016.36 1016.58 1016.74 1016.84 1016.86 1016.82 1016.73 1016.63 1016.52 1016.44 1016.39 1016.37 1016.37 1016.37 1016.35 1016.30
1004.08 1003.96 1003.73 1003.41 1003.02 1002.62 1002.29 1002.11 1002.14 1002.43 1003.00 1003.85 1004.94 1006.20 1007.55 1008.92 1010.23 1011.42 1012.46 1013.33 1014.03 1014.59 1015.05 1015.43 1015.77 1016.08 1016.37 1016.64 1016.88 1017.06 1017.20 1017.26 1017.27 1017.23 1017.16 1017.07 1017.00 1016.95 1016.94 1016.95 1016.99 1017.02 1017.02 1016.98
1002.70 1002.56 1002.38 1002.16 1001.92 1001.70 1001.55 1001.54 1001.72 1002.14 1002.80 1003.72 1004.86 1006.15 1007.53 1008.92 1010.27 1011.51 1012.61 1013.55 1014.32 1014.96 1015.48 1015.91 1016.28 1016.61 1016.91 1017.17 1017.39 1017.55 1017.67 1017.72 1017.73 1017.69 1017.63 1017.57 1017.52 1017.51 1017.53 1017.58 1017.64 1017.70 1017.74 1017.71
1001.44 1001.32 1001.23 1001.15 1001.09 1001.07 1001.13 1001.32 1001.66 1002.20 1002.96 1003.92 1005.07 1006.34 1007.70 1009.08 1010.41 1011.66 1012.77 1013.74 1014.56 1015.25 1015.82 1016.30 1016.71 1017.07 1017.38 1017.64 1017.86 1018.03 1018.14 1018.20 1018.21 1018.18 1018.13 1018.09 1018.06 1018.07 1018.11 1018.18 1018.27 1018.35 1018.41 1018.41
1000.39 1000.33 1000.36 1000.46 1000.60 1000.81 1001.10 1001.48 1001.99 1002.65 1003.48 1004.47 1005.59 1006.83 1008.13 1009.45 1010.72 1011.92 1013.01 1013.98 1014.81 1015.52 1016.13 1016.64 1017.08 1017.46 1017.79 1018.07 1018.29 1018.47 1018.59 1018.65 1018.67 1018.66 1018.62 1018.59 1018.57 1018.58 1018.63 1018.70 1018.79 1018.88 1018.95 1018.97
999.57 999.61 999.78 1000.07 1000.43 1000.87 1001.38 1001.96 1002.63 1003.41 1004.30 1005.30 1006.40 1007.58 1008.80 1010.03 1011.22 1012.35 1013.39 1014.31 1015.13 1015.84 1016.44 1016.97 1017.43 1017.82 1018.16 1018.46 1018.69 1018.88 1019.01 1019.09 1019.11 1019.11 1019.08 1019.04 1019.01 1019.01 1019.04 1019.10 1019.18 1019.26 1019.33 1019.36
998.92 999.08 999.41 999.89 1000.47 1001.13 1001.85 1002.62 1003.45 1004.33 1005.28 1006.30 1007.38 1008.50 1009.65 1010.79 1011.89 1012.94 1013.91 1014.79 1015.56 1016.24 1016.84 1017.36 1017.81 1018.20 1018.55 1018.84 1019.09 1019.28 1019.41 1019.49 1019.52 1019.51 1019.48 1019.43 1019.38 1019.36 1019.36 1019.38 1019.44 1019.50 1019.55 1019.58
998.36 998.65 999.15 999.81 1000.60 1001.45 1002.36 1003.30 1004.27 1005.26 1006.28 1007.32 1008.40 1009.48 1010.57 1011.65 1012.69 1013.67 1014.57 1015.39 1016.13 1016.77 1017.34 1017.83 1018.27 1018.64 1018.97 1019.25 1019.49 1019.67 1019.80 1019.88 1019.90 1019.88 1019.83 1019.77 1019.70 1019.64 1019.60 1019.59 1019.61 1019.64 1019.68 1019.69
997.80 998.24 998.89 999.72 1000.67 1001.70 1002.77 1003.86 1004.95 1006.05 1007.14 1008.23 1009.32 1010.40 1011.48 1012.52 1013.51 1014.45 1015.32 1016.10 1016.80 1017.41 1017.94 1018.40 1018.80 1019.15 1019.45 1019.71 1019.92 1020.08 1020.19 1020.25 1020.26 1020.23 1020.16 1020.08 1019.98 1019.89 1019.82 1019.78 1019.76 1019.76 1019.77 1019.77
997.24 997.81 998.61 999.57 1000.66 1001.82 1003.02 1004.23 1005.42 1006.61 1007.77 1008.92 1010.05 1011.17 1012.25 1013.29 1014.29 1015.22 1016.07 1016.83 1017.51 1018.10 1018.60 1019.03 1019.40 1019.71 1019.97 1020.19 1020.36 1020.49 1020.58 1020.62 1020.61 1020.56 1020.48 1020.38 1020.27 1020.16 1020.06 1019.99 1019.95 1019.92 1019.91 1019.89
996.74 997.43 998.34 999.41 1000.59 1001.85 1003.13 1004.42 1005.69 1006.95 1008.18 1009.39 1010.57 1011.73 1012.85 1013.92 1014.94 1015.89 1016.75 1017.52 1018.19 1018.77 1019.26 1019.67 1020.00 1020.27 1020.50 1020.67 1020.81 1020.90 1020.96 1020.97 1020.95 1020.89 1020.80 1020.69 1020.57 1020.45 1020.35 1020.26 1020.20 1020.15 1020.12 1020.08
996.42 997.21 998.20 999.35 1000.59 1001.89 1003.22 1004.55 1005.87 1007.17 1008.44 1009.69 1010.92 1012.12 1013.28 1014.39 1015.44 1016.42 1017.31 1018.10 1018.79 1019.37 1019.85 1020.24 1020.56 1020.80 1020.99 1021.14 1021.23 1021.30 1021.32 1021.32 1021.28 1021.21 1021.12 1021.01 1020.89 1020.77 1020.67 1020.58 1020.52 1020.46 1020.41 1020.36
996.42 997.30 998.36 999.54 1000.81 1002.12 1003.46 1004.79 1006.11 1007.41 1008.69 1009.96 1011.20 1012.42 1013.60 1014.74 1015.82 1016.83 1017.74 1018.55 1019.25 1019.84 1020.33 1020.73 1021.03 1021.26 1021.43 1021.55 1021.63 1021.67 1021.67 1021.65 1021.59 1021.52 1021.43 1021.32 1021.21 1021.10 1021.01 1020.93 1020.86 1020.80 1020.74 1020.67
996.86 997.82 998.92 1000.12 1001.38 1002.68 1003.98 1005.27 1006.56 1007.82 1009.08 1010.31 1011.54 1012.74 1013.92 1015.06 1016.13 1017.14 1018.06 1018.89 1019.60 1020.21 1020.71 1021.11 1021.42 1021.65 1021.81 1021.92 1021.99 1022.01 1022.00 1021.96 1021.90 1021.82 1021.73 1021.62 1021.52 1021.42 1021.33 1021.25 1021.18 1021.11 1021.04 1020.95
997.76 998.78 999.91 1001.11 1002.35 1003.60 1004.85 1006.08 1007.30 1008.50 1009.68 1010.86 1012.02 1013.17 1014.30 1015.40 1016.45 1017.43 1018.34 1019.15 1019.86 1020.48 1020.99 1021.40 1021.73 1021.97 1022.14 1022.26 1022.32 1022.34 1022.33 1022.28 1022.21 1022.13 1022.02 1021.91 1021.81 1021.70 1021.61 1021.52 1021.44 1021.36 1021.27 1021.16
999.06 1000.13 1001.28 1002.46 1003.66 1004.86 1006.03 1007.19 1008.32 1009.43 1010.52 1011.61 1012.68 1013.75 1014.80 1015.82 1016.80 1017.73 1018.60 1019.38 1020.08 1020.69 1021.21 1021.64 1021.98 1022.25 1022.44 1022.57 1022.65 1022.68 1022.66 1022.61 1022.53 1022.43 1022.32 1022.20 1022.07 1021.95 1021.84 1021.74 1021.64 1021.54 1021.42 1021.27
1000.60 1001.70 1002.84 1004.00 1005.16 1006.29 1007.40 1008.47 1009.51 1010.53 1011.52 1012.51 1013.48 1014.44 1015.39 1016.32 1017.22 1018.07 1018.87 1019.61 1020.28 1020.88 1021.40 1021.84 1022.20 1022.49 1022.72 1022.87 1022.97 1023.01 1023.00 1022.95 1022.87 1022.75 1022.62 1022.48 1022.33 1022.19 1022.05 1021.91 1021.78 1021.65 1021.50 1021.32
1002.17 1003.27 1004.39 1005.52 1006.63 1007.71 1008.75 1009.75 1010.71 1011.64 1012.55 1013.44 1014.31 1015.18 1016.02 1016.85 1017.65 1018.42 1019.15 1019.84 1020.47 1021.04 1021.56 1022.01 1022.39 1022.71 1022.96 1023.14 1023.26 1023.33 1023.33 1023.29 1023.20 1023.08 1022.93 1022.76 1022.59 1022.42 1022.25 1022.08 1021.92 1021.75 1021.57 1021.36
1003.57 1004.64 1005.74 1006.82 1007.88 1008.90 1009.88 1010.83 1011.73 1012.61 1013.45 1014.27 1015.06 1015.84 1016.60 1017.34 1018.06 1018.74 1019.41 1020.03 1020.62 1021.17 1021.67 1022.12 1022.51 1022.85 1023.13 1023.35 1023.50 1023.59 1023.62 1023.59 1023.51 1023.39 1023.23 1023.05 1022.87 1022.67 1022.48 1022.29 1022.10 1021.90 1021.69 1021.45
1004.68 1005.70 1006.73 1007.76 1008.76 1009.74 1010.68 1011.59 1012.46 1013.30 1014.11 1014.88 1015.63 1016.35 1017.05 1017.72 1018.36 1018.98 1019.58 1020.15 1020.70 1021.21 1021.70 1022.14 1022.55 1022.91 1023.21 1023.46 1023.64 1023.76 1023.82 1023.82 1023.76 1023.66 1023.52 1023.35 1023.16 1022.96 1022.76 1022.56 1022.35 1022.13 1021.90 1021.64
Thickness
5778 5786 5788 5785 5785 5787 5784 5787 5784 5791 5794 5801 5806 5804 5802 5800 5797 5794 5792 5790 5788 5786 5784 5783 5781 5780 5779 5777 5776 5773 5769 5766 5763 5761 5759 5757 5754 5752 5750 5747 5745 5742 5739 5737
5763 5774 5778 5776 5782 5783 5782 5784 5785 5787 5789 5805 5805 5803 5798 5794 5791 5787 5786 5785 5783 5781 5779 5776 5775 5773 5772 5770 5768 5766 5762 5759 5757 5754 5752 5750 5747 5745 5743 5741 5739 5736 5734 5732
5752 5765 5764 5759 5776 5779 5781 5785 5784 5780 5788 5797 5793 5791 5790 5790 5787 5784 5783 5782 5780 5777 5774 5772 5771 5768 5765 5764 5761 5758 5755 5752 5749 5747 5745 5743 5742 5739 5736 5734 5732 5730 5729 5727
5746 5744 5731 5766 5787 5785 5778 5780 5785 5785 5788 5789 5788 5789 5791 5790 5787 5782 5781 5778 5777 5774 5771 5769 5767 5764 5761 5758 5754 5751 5748 5745 5743 5741 5739 5736 5734 5732 5730 5728 5726 5724 5723 5721
5737 5736 5745 5763 5772 5774 5768 5767 5778 5778 5780 5783 5785 5784 5783 5787 5786 5781 5778 5776 5773 5772 5769 5765 5761 5758 5754 5750 5746 5744 5741 5738 5736 5734 5732 5729 5727 5725 5724 5722 5719 5718 5717 5715
5727 5723 5729 5752 5766 5772 5765 5754 5769 5772 5771 5774 5774 5768 5773 5780 5779 5776 5774 5771 5768 5766 5763 5758 5754 5751 5746 5743 5739 5737 5735 5732 5730 5728 5725 5723 5720 5719 5717 5715 5713 5711 5709 5708
5720 5721 5739 5751 5761 5760 5741 5746 5760 5765 5765 5766 5765 5767 5772 5773 5770 5768 5766 5764 5761 5758 5754 5750 5747 5743 5738 5736 5733 5732 5730 5726 5723 5721 5718 5716 5714 5712 5710 5708 5706 5703 5701 5701
5715 5714 5725 5744 5748 5743 5743 5752 5756 5758 5760 5760 5761 5763 5763 5763 5761 5759 5757 5755 5752 5748 5746 5743 5740 5736 5731 5728 5728 5726 5723 5719 5717 5714 5713 5712 5707 5705 5703 5700 5698 5696 5694 5693
5720 5721 5729 5738 5739 5743 5746 5744 5747 5750 5752 5752 5752 5754 5754 5753 5752 5751 5749 5746 5744 5742 5738 5735 5732 5729 5724 5722 5721 5718 5715 5712 5709 5707 5705 5704 5701 5699 5697 5695 5694 5692 5689 5687
5710 5718 5724 5729 5734 5736 5738 5738 5742 5744 5745 5746 5745 5747 5746 5745 5744 5742 5740 5738 5736 5733 5729 5725 5724 5722 5719 5716 5714 5711 5707 5705 5703 5701 5699 5696 5694 5693 5692 5689 5687 5684 5682 5679
5699 5709 5713 5719 5723 5726 5729 5732 5734 5736 5739 5739 5740 5739 5739 5737 5735 5733 5731 5729 5726 5723 5719 5716 5714 5713 5712 5709 5706 5702 5700 5698 5697 5695 5693 5690 5688 5685 5684 5680 5677 5674 5674 5672
5693 5700 5702 5707 5715 5718 5719 5721 5725 5727 5729 5732 5733 5732 5731 5729 5728 5726 5723 5720 5717 5715 5711 5709 5706 5704 5704 5702 5698 5694 5692 5691 5692 5690 5687 5685 5682 5678 5671 5669 5665 5662 5659 5658
5690 5696 5699 5703 5707 5710 5711 5715 5718 5720 5721 5722 5723 5723 5722 5721 5720 5717 5714 5712 5709 5706 5704 5702 5699 5697 5695 5694 5691 5688 5686 5685 5685 5683 5680 5677 5675 5672 5668 5661 5656 5653 5650 5647
5683 5685 5686 5693 5697 5702 5705 5708 5711 5713 5713 5713 5713 5713 5713 5711 5710 5708 5705 5704 5702 5699 5696 5694 5691 5688 5687 5685 5682 5680 5679 5677 5676 5674 5673 5671 5668 5666 5663 5659 5655 5651 5644 5639
5676 5679 5682 5687 5691 5694 5697 5699 5699 5700 5702 5702 5703 5703 5702 5700 5699 5698 5697 5696 5694 5692 5689 5686 5682 5680 5679 5677 5675 5672 5672 5670 5668 5666 5665 5663 5661 5659 5656 5652 5650 5646 5642 5636
5670 5674 5676 5679 5681 5684 5687 5688 5688 5689 5691 5692 5692 5692 5692 5691 5690 5689 5688 5687 5685 5682 5679 5677 5675 5673 5672 5669 5666 5665 5663 5659 5657 5657 5656 5654 5653 5651 5648 5645 5643 5639 5636 5632
5659 5662 5666 5669 5672 5675 5677 5679 5679 5681 5682 5683 5683 5684 5684 5683 5681 5679 5678 5678 5676 5674 5672 5669 5667 5666 5664 5662 5660 5659 5656 5653 5648 5650 5648 5646 5644 5642 5639 5636 5635 5632 5630 5625
5657 5659 5660 5661 5664 5666 5668 5670 5671 5672 5673 5674 5674 5675 5674 5673 5672 5670 5669 5668 5667 5665 5664 5662 5660 5658 5656 5654 5653 5652 5649 5647 5644 5642 5640 5637 5635 5633 5631 5628 5626 5624 5623 5619
5650 5652 5653 5655 5658 5660 5661 5662 5664 5665 5666 5666 5665 5664 5664 5663 5663 5662 5660 5659 5657 5656 5655 5654 5649 5649 5648 5646 5644 5643 5642 5640 5637 5635 5632 5627 5626 5625 5623 5621 5618 5616 5614 5612
5642 5644 5646 5648 5650 5652 5653 5654 5655 5656 5657 5657 5656 5655 5654 5653 5653 5652 5651 5650 5651 5650 5647 5644 5643 5642 5640 5638 5635 5636 5635 5633 5630 5628 5625 5623 5620 5618 5616 5614 5611 5609 5607 5605
5633 5636 5637 5639 5640 5642 5644 5646 5647 5647 5648 5648 5647 5645 5644 5644 5643 5643 5643 5643 5641 5639 5638 5635 5635 5634 5632 5629 5626 5629 5628 5625 5623 5620 5617 5614 5612 5611 5608 5606 5604 5602 5600 5598
5626 5628 5630 5632 5632 5633 5636 5638 5638 5638 5639 5638 5638 5637 5636 5635 5635 5635 5634 5633 5632 5628 5629 5630 5629 5624 5622 5619 5622 5622 5620 5617 5614 5612 5609 5607 5605 5603 5601 5599 5597 5595 5593 5591
5619 5620 5622 5624 5626 5627 5628 5630 5630 5630 5630 5630 5630 5630 5630 5629 5630 5628 5626 5626 5625 5620 5621 5621 5616 5612 5610 5613 5614 5613 5611 5609 5606 5605 5603 5600 5598 5596 5594 5592 5590 5588 5586 5584
5612 5613 5615 5618 5620 5620 5620 5622 5623 5623 5623 5624 5624 5624 5624 5623 5623 5623 5621 5616 5614 5612 5613 5609 5605 5603 5602 5606 5605 5604 5602 5600 5598 5596 5594 5592 5590 5588 5586 5585 5583 5580 5578 5576
5606 5608 5611 5612 5613 5614 5615 5616 5616 5616 5617 5618 5619 5619 5619 5618 5616 5615 5613 5610 5606 5604 5605 5601 5597 5595 5597 5598 5597 5596 5594 5592 5590 5588 5586 5584 5583 5581 5578 5576 5574 5572 5570 5569
5600 5604 5606 5606 5607 5608 5610 5611 5611 5612 5612 5612 5612 5612 5611 5609 5608 5607 5605 5603 5601 5598 5598 5596 5593 5590 5591 5590 5589 5587 5585 5583 5581 5579 5578 5576 5575 5573 5571 5569 5566 5565 5563 5561
5595 5598 5599 5601 5603 5604 5605 5605 5605 5606 5606 5606 5604 5604 5603 5602 5601 5599 5597 5596 5594 5593 5591 5589 5587 5585 5583 5582 5581 5579 5577 5576 5575 5572 5570 5568 5566 5565 5563 5561 5560 5557 5555 5554